Terug naar catalogus

STARLINK-35520

ActiefCommunicatieVLEO
NORAD 66133·PAYLOAD·🇺🇸 United States

Gelanceerd Oct 22, 2025 vanaf Vandenberg Space Force Base

Loading…

Volgende Passages (komende 24 uur)

TLE

VersSource: CelesTrak SupGP

Epoch: Sep 14, 2026, 21:03 UTC

1 66133C 25237V   26257.87756944  .00048014  00000+0  14185-2 0  2574
2 66133  53.1572 237.7007 0001268  96.8563 155.6706 15.34369623    17

Volg STARLINK-35520 in realtime met AllMySat

Download on the App Store